欧洲卫星公司-22星 (SES-22)

导读

SES-22,即欧洲卫星公司-22星,是由卢森堡SES公司运营的高吞吐量通信卫星,由意大利阿莱尼亚宇航公司制造,于北京时间2022年6月29日发射,目前运行在地球同步轨道,已在轨稳定飞行超千天。它采用三轴稳定模式,搭载多波段转发器,能提供高速互联网接入与视频传输服务,可有效满足区域带宽增长需求,是SES拓展全球卫星通信网络的重要节点。

Basic Information
目录编号:
52933
目录名称:
SES 22
国际标识:
2022-071A
轨道中心:
EARTH
卫星名称:
欧洲卫星公司-22星
卫星全名:
欧洲卫星公司-22星 (SES-22)
卫星状态:
在轨 (已飞行1444 天)
发射日期:
2022-06-29 UTC
国别 :
(SES)
星等 :
--
Orbit Information
数据来源 国际轨道数据 AOE轨道数据
星历时间 2026-06-12T15:13:42+0800
12小时前
查看轨道信息
2026-06-10T20:00:00+0800
2天前
查看轨道信息
半长轴 42165.485km 42164.112km
偏心率 0.000133 0.0001073
轨道倾角 0.014° 0.020°
近地点辐角 124.016° 130.397°
升交点赤经 305.583° 295.438°
平近点角 160.465° 234.056°
近地点 35781.739km 35781.45km
远地点 35792.957km 35790.5km
周期 1436.135分钟 1436.065分钟
每日圈数 1.002691 1.00274
Detailed Information
卫星平台:
SpaceBusNEO 200
平衡模式:
三轴稳定
覆盖范围:
大西洋
运营商:
欧洲卫星公司
运营商所在国:
卢森堡
制造商(研发单位):
阿莱尼亚宇航公司
制造商所在国:
意大利
使用方式:
暂无
Satellite Introduction
欧洲卫星公司:成立于1985年,总部设在卢森堡。该公司通过运营ASTRA、AMERICOM及 NEW SKIES卫星系统为客户提供电视、广播和多媒体直接到户的信息传送服务,是世界第二大卫星运营商。该卫星仍在工作。
2D Orbit Map
3D Orbit Map
Orbit Altitude Analysis Chart
Orbit Inclination Analysis Chart
Orbit Comprehensive Analysis Chart
View Comprehensive Chart